Flag for Belize Weather past 2 weeks in Belize City, Belize

Now
82 °F

Partly sunny.


Feels Like: 91 °F
Forecast: 81 / 87 °F
Wind: 12 mph from East

Location: Belize / Phillip Goldston Intl. Airport

Current Time: Apr 19, 2015 at 7:32:05 AM

Latest Report: Apr 19, 2015 at 7:00 AM


Visibility: N/A

Pressure: 29.84 "Hg

Humidity: 84%

Dew point: 77 °F

Location of Belize CityLocation

Historic Weather in Belize City — Graph

°F

Belize City temperature yesterday

Maximum temperature yesterday: 88 °F (at 11:00 AM)
Minimum temperature yesterday: 81 °F (at 5:00 AM)
Average temperature yesterday: 85 °F

Past Weeks' High & Low Weather Summary

 TemperatureHumidityPressure
High88 °F (Apr 9, 12:00 PM)100% (Apr 15, 11:00 AM)30.04 "Hg (Apr 15, 11:00 AM)
Low70 °F (Apr 5, 5:00 AM)62% (Apr 4, 2:00 PM)29.78 "Hg (Apr 18, 3:00 PM)
Average83 °F77%29.94 "Hg
* Reported Apr 4 6:00 AM — Apr 19 6:00 AM, Belize City, Weather by CustomWeather, © 2015

Note: Actual official high and low records may vary slightly from our data, if they occured in-between our weather recording intervals... More about our weather records

Advertising

Belize City weather history for previous 24 hours

 ConditionsComfort  
Time TempWeatherWind HumidityBarometerVisibility
6:00 AM
Sun, Apr 19
81 °FScattered clouds.14 mph89%29.82 "HgN/A
5:00 AM81 °FPassing clouds.12 mph89%29.81 "HgN/A
8:00 PM
Sat, Apr 18
82 °FPassing clouds.7 mph84%29.85 "HgN/A
7:00 PM81 °FPassing clouds.7 mph89%29.82 "HgN/A
6:00 PM82 °FPassing clouds.7 mph84%29.79 "HgN/A
5:00 PM84 °FPassing clouds.10 mph79%29.79 "HgN/A
4:00 PM88 °FPassing clouds.9 mph70%29.78 "HgN/A
3:00 PM88 °FPassing clouds.8 mph75%29.78 "HgN/A
2:00 PM88 °FPassing clouds.6 mph75%29.80 "HgN/A
1:00 PM88 °FPassing clouds.8 mph75%29.83 "HgN/A
12:00 PM88 °FPassing clouds.9 mph70%29.85 "HgN/A
11:00 AM88 °FScattered clouds.8 mph70%29.87 "HgN/A
10:00 AM86 °FPartly sunny.9 mph75%29.89 "HgN/A
9:00 AM86 °FPartly sunny.8 mph75%29.89 "HgN/A
8:00 AM84 °FPartly sunny.9 mph79%29.88 "HgN/A
7:00 AM82 °FPartly sunny.7 mph84%29.87 "HgN/A
Weather by CustomWeather, © 2015

See weather overviewHow to use our weather pages